This demonstration page uses our WeatherBlox Daily Observations layout. Learn more.

Left ArrowRight Arrow

39.92423, -83.80882

Hourly Observations for January 10, 2017

Temp ( °F °C ) Dew Point ( °F °C ) Humidity (%) Winds ( mph kmh ) Pressure ( in mb ) Visibility ( mi km ) Precip ( " mm )
12:56 am 00:56 Mostly Cloudy 33 0.6 19 -7.2 56 56 S 13 20 30.26 1025 10 16.0934 0 0
1:56 am 01:56 Cloudy 33 0.6 19 -7.2 56 56 S 13 20 30.22 1023 10 16.0934 0 0
2:56 am 02:56 Cloudy 33 0.6 19 -7.2 56 56 S 13 20 30.18 1022 10 16.0934 0 0
3:56 am 03:56 Cloudy with Light Rain 33 0.6 22 -5.6 64 64 S 12 19 30.18 1022 10 16.0934 0.001 0.001
4:37 am 04:37 Cloudy with Light Freezing Rain 34 1 25 -4 70 70 S 12 19 30.18 1022 10 16.0934 0.001 0.001
4:46 am 04:46 Cloudy with Light Freezing Rain 34 1 27 -3 75 75 S 13 20 30.18 1022 10 16.0934 0.001 0.001
4:56 am 04:56 Cloudy with Light Freezing Rain 33 0.6 26 -3.3 75 75 S 15 24 30.14 1021 10 16.0934 0.001 0.001
5:13 am 05:13 Cloudy with Light Rain 34 1 27 -3 75 75 S 16 26 30.15 1021 10 16.0934 0.01 0.254
5:56 am 05:56 Cloudy with Light Wintry Mix 33 0.6 29 -1.7 85 85 S 17 28 30.1 1019 7 11.26538 0.01 0.254
6:33 am 06:33 Cloudy with Light Wintry Mix 34 1 30 -1 87 87 S 14 22 30.12 1020 9 14.48406 0.001 0.001
6:56 am 06:56 Cloudy with Light Wintry Mix 33 0.6 31 -0.6 92 92 S 12 19 30.09 1019 6 9.65604 0.001 0.001
7:23 am 07:23 Cloudy with Light Wintry Mix 34 1 30 -1 87 87 S 13 20 30.09 1019 9 14.48406 0.001 0.001
7:56 am 07:56 Cloudy 34 1.1 30 -1.1 85 85 S 16 26 30.06 1018 10 16.0934 0.001 0.001
8:56 am 08:56 Cloudy 35 1.7 31 -0.6 85 85 S 21 33 30.03 1017 10 16.0934 0 0
9:56 am 09:56 Cloudy 37 2.8 31 -0.6 79 79 S 16 26 30.01 1016 10 16.0934 0 0
10:56 am 10:56 Cloudy with Light Rain 37 2.8 33 0.6 86 86 S 14 22 29.99 1016 10 16.0934 0.001 0.001
11:56 am 11:56 Cloudy 38 3.3 34 1.1 86 86 S 16 26 29.92 1013 10 16.0934 0.001 0.001
12:31 pm 12:31 Cloudy 39 4 34 1 81 81 S 17 28 29.85 1011 10 16.0934 0 0
12:56 pm 12:56 Cloudy 42 5.6 35 1.7 76 76 S 20 31 29.84 1011 10 16.0934 0 0
1:56 pm 13:56 Cloudy 44 6.7 36 2.2 73 73 S 20 31 29.81 1010 10 16.0934 0.001 0.001
2:56 pm 14:56 Cloudy with Light Rain 46 7.8 38 3.3 73 73 SSW 21 33 29.81 1010 10 16.0934 0.001 0.001
3:26 pm 15:26 Cloudy with Light Rain 45 7 37 3 76 76 S 21 33 29.8 1009 10 16.0934 0.001 0.001
3:56 pm 15:56 Cloudy with Light Rain 44 6.7 39 3.9 83 83 S 25 41 29.74 1007 10 16.0934 0.02 0.508
4:56 pm 16:56 Cloudy 45 7.2 39 3.9 80 80 S 22 35 29.75 1008 10 16.0934 0.001 0.001
5:56 pm 17:56 Cloudy with Light Rain 46 7.8 39 3.9 77 77 S 23 37 29.72 1007 10 16.0934 0.001 0.001
6:26 pm 18:26 Cloudy 46 8 39 4 76 76 S 22 35 29.71 1006 10 16.0934 0.001 0.001
6:56 pm 18:56 Cloudy with Light Rain 47 8.3 41 5 80 80 SSW 18 30 29.73 1007 9 14.48406 0.001 0.001
7:56 pm 19:56 Cloudy with Light Rain 47 8.3 44 6.7 90 90 SSW 16 26 29.73 1007 10 16.0934 0.05 1.27
8:56 pm 20:56 Cloudy with Rain 48 8.9 46 7.8 93 93 SSW 21 33 29.75 1008 7 11.26538 0.08 2.032
9:32 pm 21:32 Cloudy with Thunderstorms 48 9 46 8 94 94 WSW 22 35 29.77 1008 10 16.0934 0.05 1.27
9:49 pm 21:49 Cloudy with Light Rain 48 9 46 8 94 94 WSW 29 46 29.8 1009 7 11.26538 0.11 2.794
9:56 pm 21:56 Mostly Cloudy with Light Rain 49 9.4 45 7.2 86 86 WSW 23 37 29.84 1010 10 16.0934 0.12 3.048
10:43 pm 22:43 Partly Cloudy 46 8 39 4 76 76 W 25 41 29.94 1014 10 16.0934 0 0
10:56 pm 22:56 Mostly Clear 45 7.2 38 3.3 77 77 W 23 37 29.94 1014 10 16.0934 0 0
11:56 pm 23:56 Clear 40 4.4 35 1.7 83 83 WSW 20 31 30.01 1016 10 16.0934 0 0

Powered by AerisWeather